[[{"header":{"parameterUnit":"m.s-1","parameterCategory":1,"la1":30.2991,"la2":30.254,"lo1":-89.0895,"lo2":-89.0444,"dy":0.0017,"dx":0.0017,"nx":28,"ny":28,"refTime":"2025-08-18T09:00:00:Z","depth":0,"parameterNumber":2,"parameterNumberName":"U-component_of_WINDS"},"data":[0,0,0,0,0,0,0,0,0,0,0,0,0,0,0,0,0,0,0,0,0,0,0,0,0,0,0,0,0,0,0,0,0,0,0,0,0,0,0,0,0,0,0,0,0,0,0,0,0,0,0,0,0,0,0,0,0,0,-0.329,-0.329,0,-0.3256,-0.3256,-0.3256,-0.3217,-0.3217,-0.3216,-0.3216,-0.3184,-0.3183,-0.3183,0,0,0,0,0,0,0,0,0,0,0,0,0,-0.3324,-0.3324,-0.329,-0.329,-0.3289,-0.3256,-0.3256,-0.3256,-0.3218,-0.3217,-0.3216,-0.3215,-0.3184,-0.3183,-0.3183,0,0,0,0,0,0,0,0,0,0,0,0,0,-0.3302,-0.3324,-0.329,-0.3266,-0.3264,-0.3257,-0.3256,-0.3255,-0.3218,-0.3217,-0.3216,-0.3215,-0.3184,-0.3183,-0.3183,-0.3197,0,0,-0.3181,-0.3181,0,0,0,0,0,0,0,0,-0.3303,-0.3301,-0.327,-0.3268,-0.3265,-0.324,-0.3256,-0.3236,-0.3218,-0.3235,-0.3216,-0.3215,-0.3203,-0.3201,-0.3197,-0.3196,-0.3194,-0.3181,-0.3181,-0.3181,-0.3181,0,0,0,0,0,0,0,-0.3305,-0.3302,-0.3277,-0.327,-0.3267,-0.3258,-0.3254,-0.3252,-0.3225,-0.3234,-0.3231,-0.3227,-0.3202,-0.3197,-0.3196,-0.3194,-0.3181,-0.3181,-0.3181,-0.318,-0.3204,-0.3205,0,0,0,0,0,0,-0.331,-0.3304,-0.3278,-0.3276,-0.3282,-0.3258,-0.3254,-0.3249,-0.3224,-0.322,-0.3228,-0.3226,-0.3199,-0.3196,-0.3195,-0.321,-0.3181,-0.318,-0.318,-0.3203,-0.3204,-0.3205,0,0,0,0,0,0,-0.3311,-0.3308,-0.3279,-0.3289,-0.3285,-0.3259,-0.3254,-0.3249,-0.3244,-0.322,-0.3215,-0.3228,-0.3198,-0.3195,-0.3197,-0.3209,-0.318,-0.318,-0.3202,-0.3203,-0.3205,-0.3242,0,0,0,0,0,0,-0.3312,-0.3308,-0.3313,-0.3289,-0.3284,-0.3281,-0.3254,-0.3249,-0.3243,-0.324,-0.3219,-0.3215,-0.3197,-0.3198,-0.3196,-0.3208,-0.3179,-0.3201,-0.3203,-0.3204,-0.324,-0.3245,-0.3249,0,0,0,0,0,-0.3313,-0.3325,-0.3313,-0.331,-0.3289,-0.3282,-0.3279,-0.3258,-0.3244,-0.3249,-0.3234,-0.3216,-0.3208,-0.3198,-0.3196,-0.3208,-0.32,-0.3202,-0.3204,-0.3238,-0.3244,-0.3249,0,0,0,0,0,0,-0.3351,-0.3321,-0.3308,-0.3312,-0.33,-0.3276,-0.3281,-0.3265,-0.3256,-0.3253,-0.3228,-0.3223,-0.3228,-0.3218,-0.3208,-0.3221,-0.3201,-0.3203,-0.3227,-0.3233,-0.3237,-0.324,-0.3179,0,0,0,0,0,-0.336,-0.3356,-0.333,-0.3337,-0.3331,-0.3307,-0.3304,-0.3288,-0.3274,-0.3269,-0.3254,-0.3242,-0.3237,-0.3234,-0.3228,-0.3238,-0.3234,-0.3245,-0.3249,-0.3253,-0.3255,-0.3261,-0.3266,-0.3212,-0.3212,-0.3212,0,0,-0.3378,-0.3362,-0.3361,-0.3344,-0.3333,-0.333,-0.3303,-0.3302,-0.33,-0.3269,-0.327,-0.3258,-0.3244,-0.325,-0.3252,-0.3241,-0.3269,-0.3256,-0.3259,-0.3259,-0.3263,-0.3269,-0.3273,-0.3213,-0.3213,-0.3213,0,0,-0.3411,-0.3397,-0.3401,-0.3391,-0.3373,-0.3357,-0.3359,-0.3337,-0.3328,-0.3328,-0.3305,-0.3303,-0.3295,-0.3285,-0.328,-0.3309,-0.3293,-0.3308,-0.3332,-0.3338,-0.3342,-0.3346,-0.3357,-0.3362,-0.331,-0.331,-0.331,0,-0.3436,-0.3431,-0.3406,-0.3406,-0.34,-0.3371,-0.3376,-0.3367,-0.3349,-0.3346,-0.3334,-0.3324,-0.3312,-0.3316,-0.3323,-0.3319,-0.332,-0.3311,-0.3343,-0.3347,-0.335,-0.3361,-0.3365,-0.3312,-0.3312,-0.3312,-0.3312,0,-0.3463,-0.346,-0.3466,-0.3448,-0.3443,-0.3445,-0.3422,-0.342,-0.3405,-0.339,-0.3392,-0.3376,-0.3367,-0.3367,-0.3352,-0.3369,-0.3363,-0.3348,-0.3328,-0.3357,-0.3367,-0.3371,-0.3315,-0.3314,-0.3314,-0.3313,0,0,-0.3519,-0.3488,-0.3491,-0.3483,-0.3462,-0.346,-0.3461,-0.3452,-0.3451,-0.3439,-0.3441,-0.3435,-0.342,-0.3414,-0.3398,-0.3403,-0.3429,-0.3387,-0.3386,-0.3396,-0.3448,-0.3461,-0.3466,-0.3417,-0.3418,-0.3419,-0.345,0,-0.3549,-0.3549,-0.3527,-0.3534,-0.3531,-0.3504,-0.3506,-0.3494,-0.348,-0.3477,-0.3463,-0.3459,-0.344,-0.3436,-0.3439,-0.3425,-0.3439,-0.3422,-0.342,-0.342,-0.3425,-0.347,-0.3483,-0.3513,-0.3453,-0.3454,-0.3454,0,-0.3584,-0.3574,-0.358,-0.3559,-0.3557,-0.3559,-0.3549,-0.3545,-0.3532,-0.3522,-0.3515,-0.3497,-0.3498,-0.3479,-0.3481,-0.347,-0.3468,-0.346,-0.3461,-0.3461,-0.344,-0.3473,-0.3522,-0.3527,-0.346,-0.3459,-0.3459,0,-0.3625,-0.3614,-0.3616,-0.361,-0.3586,-0.3588,-0.3578,-0.3563,-0.3559,-0.355,-0.3548,-0.354,-0.3535,-0.353,-0.3511,-0.3498,-0.3516,-0.3494,-0.3509,-0.3509,-0.3514,-0.3514,-0.3566,-0.3511,-0.3511,-0.3511,-0.3511,0,-0.3661,-0.3667,-0.3634,-0.3636,-0.3642,-0.3617,-0.3623,-0.3611,-0.3598,-0.3598,-0.3574,-0.3574,-0.3548,-0.3546,-0.3531,-0.3536,-0.3534,-0.3527,-0.3523,-0.3529,-0.353,-0.3528,-0.3526,-0.3512,-0.3512,-0.3512,-0.3511,0,-0.3709,-0.3688,-0.3689,-0.3666,-0.366,-0.3665,-0.3646,-0.3647,-0.3632,-0.3632,-0.3631,-0.3608,-0.3604,-0.3584,-0.3576,-0.3566,-0.3576,-0.3568,-0.3581,-0.3578,-0.3594,-0.3594,-0.3647,-0.3653,-0.3594,-0.3594,-0.3595,0,-0.3734,-0.3738,-0.3715,-0.3712,-0.3703,-0.37,-0.3695,-0.3671,-0.3667,-0.3652,-0.3656,-0.365,-0.3644,-0.3639,-0.3623,-0.3617,-0.3608,-0.3627,-0.3607,-0.3614,-0.361,-0.361,-0.3611,-0.3632,-0.3633,-0.3633,-0.3634,0,-0.3781,-0.3771,-0.3764,-0.3755,-0.375,-0.3741,-0.3731,-0.3731,-0.3704,-0.3702,-0.3697,-0.3693,-0.3684,-0.3679,-0.367,-0.3661,-0.3644,-0.364,-0.3643,-0.3651,-0.3659,-0.3656,-0.3594,-0.3639,-0.3639,-0.3638,-0.3638,-0.3638,-0.3819,-0.3821,-0.3806,-0.38,-0.3789,-0.3781,-0.3781,-0.3766,-0.3761,-0.3752,-0.3738,-0.3736,-0.3723,-0.3709,-0.3701,-0.37,-0.369,-0.3694,-0.3695,-0.3697,-0.3701,-0.3658,-0.3698,-0.3698,-0.3697,-0.3697,-0.3697,0,-0.3866,-0.3855,-0.3849,-0.3836,-0.3832,-0.3814,-0.3803,-0.3801,-0.3799,-0.3787,-0.3782,-0.3777,-0.3772,-0.3755,-0.3749,-0.3751,-0.3743,-0.375,-0.375,-0.3749,-0.371,-0.3708,-0.3757,-0.3757,-0.3757,-0.3757,-0.3757,-0.3757,-0.389,-0.3893,-0.388,-0.3878,-0.3867,-0.3863,-0.3858,-0.3851,-0.3842,-0.3837,-0.3833,-0.3821,-0.3808,-0.38,-0.3796,-0.3791,-0.379,-0.38,-0.3793,-0.3757,-0.3751,-0.3746,-0.3744,-0.38,-0.38,-0.3832,-0.3833,-0.3833]},{"header":{"parameterUnit":"m.s-1","parameterCategory":1,"la1":30.2991,"la2":30.254,"lo1":-89.0895,"lo2":-89.0444,"dy":0.0017,"dx":0.0017,"nx":28,"ny":28,"refTime":"2025-08-18T09:00:00:Z","depth":0,"parameterNumber":3,"parameterNumberName":"V-component_of_WINDS"},"data":[0,0,0,0,0,0,0,0,0,0,0,0,0,0,0,0,0,0,0,0,0,0,0,0,0,0,0,0,0,0,0,0,0,0,0,0,0,0,0,0,0,0,0,0,0,0,0,0,0,0,0,0,0,0,0,0,0,0,2.61,2.61,0,2.6076,2.6075,2.6075,2.601,2.6008,2.6007,2.6005,2.5981,2.5982,2.5982,0,0,0,0,0,0,0,0,0,0,0,0,0,2.6092,2.6092,2.61,2.61,2.61,2.6076,2.6075,2.6075,2.601,2.6008,2.6006,2.6005,2.5981,2.5981,2.5982,0,0,0,0,0,0,0,0,0,0,0,0,0,2.6084,2.6093,2.61,2.6064,2.6061,2.6076,2.6075,2.6075,2.601,2.6008,2.6006,2.6004,2.598,2.5981,2.5982,2.6031,0,0,2.5985,2.5986,0,0,0,0,0,0,0,0,2.6085,2.6085,2.607,2.6067,2.6063,2.6044,2.6063,2.606,2.6011,2.6029,2.6005,2.6003,2.6004,2.6002,2.6002,2.6029,2.6028,2.5985,2.5986,2.5986,2.5987,0,0,0,0,0,0,0,2.6085,2.6085,2.6091,2.607,2.6066,2.605,2.6046,2.6062,2.6029,2.6028,2.6023,2.6021,2.6001,2.6002,2.6001,2.6028,2.5985,2.5986,2.5987,2.5987,2.6091,2.6094,0,0,0,0,0,0,2.6091,2.6086,2.6091,2.609,2.6069,2.6051,2.6048,2.6052,2.6028,2.6023,2.6023,2.6018,2.6001,2.6,2.6,2.6053,2.5986,2.5987,2.5988,2.6089,2.6092,2.6094,0,0,0,0,0,0,2.6091,2.6092,2.6092,2.6087,2.6086,2.6054,2.6059,2.6053,2.6053,2.6024,2.6018,2.6029,2.5999,2.5999,2.6023,2.6051,2.5988,2.5989,2.6087,2.609,2.6093,2.616,0,0,0,0,0,0,2.6091,2.6093,2.611,2.6088,2.6086,2.6115,2.6061,2.6054,2.6055,2.6048,2.6029,2.6024,2.5998,2.6022,2.6024,2.6051,2.599,2.6084,2.6088,2.6092,2.6155,2.6165,2.6174,0,0,0,0,0,2.6091,2.6131,2.6111,2.6112,2.6108,2.6117,2.6116,2.6085,2.6057,2.6075,2.6056,2.6024,2.6049,2.6025,2.6027,2.6055,2.6082,2.6087,2.6092,2.6151,2.6163,2.6174,0,0,0,0,0,0,2.6158,2.6127,2.6105,2.6139,2.6131,2.6106,2.6127,2.61,2.61,2.6094,2.6056,2.6052,2.6081,2.6071,2.6045,2.61,2.606,2.6066,2.6104,2.6116,2.6125,2.6126,2.599,0,0,0,0,0,2.6177,2.6187,2.616,2.6192,2.6189,2.6159,2.6162,2.6139,2.6129,2.6126,2.6109,2.6102,2.6107,2.6111,2.6115,2.6155,2.6148,2.6175,2.6184,2.6192,2.6196,2.6214,2.6225,2.611,2.611,2.611,0,0,2.6215,2.6199,2.6208,2.6205,2.6196,2.6207,2.6157,2.6171,2.6178,2.6128,2.6148,2.6137,2.6126,2.6157,2.617,2.6149,2.6227,2.6198,2.6205,2.6205,2.6221,2.6232,2.6241,2.6114,2.6113,2.6113,0,0,2.629,2.628,2.6304,2.6297,2.6284,2.6264,2.627,2.625,2.6239,2.626,2.6222,2.6231,2.6242,2.6235,2.6233,2.6306,2.6276,2.6309,2.6356,2.6374,2.6383,2.6391,2.6415,2.6424,2.6314,2.6314,2.6314,0,2.6339,2.6353,2.6321,2.6337,2.6336,2.6291,2.6315,2.631,2.6299,2.63,2.6277,2.6289,2.6279,2.6307,2.6324,2.6325,2.633,2.6309,2.6385,2.6392,2.6399,2.6421,2.643,2.6318,2.6317,2.6317,2.6316,0,2.6413,2.6424,2.6446,2.6436,2.6438,2.6458,2.6428,2.6435,2.6412,2.6394,2.6415,2.6402,2.6401,2.6407,2.6385,2.6432,2.6419,2.6392,2.635,2.6414,2.6434,2.6442,2.6323,2.6322,2.6321,2.632,0,0,2.6527,2.6499,2.6507,2.6501,2.6484,2.6492,2.6511,2.651,2.6515,2.651,2.6523,2.6534,2.6508,2.6506,2.6483,2.65,2.6556,2.647,2.6469,2.6484,2.6603,2.6622,2.6632,2.6537,2.6539,2.654,2.6603,0,2.6595,2.6623,2.6595,2.6629,2.6638,2.6597,2.6612,2.6604,2.6589,2.6594,2.6577,2.6584,2.6551,2.6549,2.6564,2.6546,2.6579,2.6541,2.6547,2.6548,2.6548,2.6643,2.6663,2.6724,2.6611,2.6613,2.6614,0,2.6677,2.6675,2.671,2.669,2.6693,2.6707,2.6703,2.671,2.6699,2.6687,2.6685,2.6658,2.6674,2.6637,2.6658,2.6633,2.6634,2.6626,2.6628,2.6625,2.6582,2.664,2.6743,2.6751,2.6626,2.6625,2.6624,0,2.6753,2.6759,2.678,2.6777,2.6755,2.6766,2.6758,2.6745,2.6746,2.6744,2.6744,2.6744,2.6743,2.6744,2.6717,2.6692,2.6741,2.6702,2.673,2.673,2.6739,2.6738,2.684,2.6745,2.6745,2.6745,2.6745,0,2.683,2.6852,2.6814,2.6826,2.685,2.6818,2.6843,2.683,2.6819,2.6829,2.6794,2.6804,2.6769,2.6775,2.6755,2.6775,2.6776,2.6765,2.6759,2.6766,2.6767,2.6764,2.6758,2.6748,2.6747,2.6747,2.6746,0,2.6917,2.6892,2.6912,2.689,2.6885,2.6903,2.6884,2.6895,2.6878,2.689,2.6891,2.6864,2.687,2.6844,2.6845,2.6831,2.686,2.6848,2.6863,2.6858,2.6887,2.6883,2.6988,2.6999,2.69,2.6901,2.6902,0,2.6966,2.6982,2.6962,2.6965,2.6958,2.6965,2.6965,2.6935,2.6937,2.6926,2.6938,2.6941,2.6941,2.6951,2.6932,2.6932,2.6918,2.6955,2.6918,2.6924,2.6915,2.6913,2.6914,2.6962,2.6963,2.6964,2.6965,0,2.7055,2.7042,2.7044,2.7042,2.7044,2.7041,2.7036,2.7041,2.7008,2.7012,2.7017,2.7017,2.7018,2.702,2.7016,2.7008,2.698,2.6977,2.6983,2.6989,2.6996,2.699,2.6881,2.6974,2.6973,2.6972,2.6972,2.6972,2.7122,2.7134,2.7121,2.7124,2.7117,2.7113,2.7122,2.7106,2.7109,2.7107,2.7089,2.7097,2.7086,2.7078,2.7072,2.7078,2.706,2.707,2.7071,2.7074,2.7077,2.6998,2.7077,2.7077,2.7077,2.7077,2.7076,0,2.7207,2.7197,2.72,2.7194,2.7196,2.7172,2.7165,2.7168,2.7175,2.7167,2.7168,2.7173,2.7175,2.7157,2.7156,2.7164,2.7151,2.7165,2.7162,2.716,2.7094,2.7088,2.7175,2.7175,2.7175,2.7175,2.7175,2.7175,2.7251,2.7269,2.7255,2.7269,2.7258,2.7265,2.7263,2.7259,2.7252,2.7259,2.7261,2.7248,2.7236,2.7234,2.7235,2.7229,2.723,2.7247,2.7237,2.7175,2.7165,2.7156,2.7149,2.7248,2.7248,2.7302,2.7302,2.7303]}]]